User: anonymous   Login
Location: Unspecified
(0.0000°N, 0.0000°E)
Time: 09:24:31
(UTC+01:00)
Language:

IUS-9 SRM-1 - Orbit

View from above orbital plane
View from above orbital plane
View from above satellite
View from above satellite

Ground track
Ground track

The orbit data is extracted from the following two-line orbital elements,

1 19884U 89021C   14303.58818172  .00009742  00000-0  12029-2 0  1508
2 19884 026.4922 023.5123 6052737 145.5139 357.9015 03.98674098294921
Epoch (UTC): 30 October 2014 14:06:58
Eccentricity: 0.6052737
inclination: 26.4922°
perigee height: 253 km
apogee height: 20591 km
right ascension of ascending node: 23.5123°
argument of perigee: 145.5139°
revolutions per day: 3.98674098
mean anomaly at epoch: 357.9015°
orbit number at epoch: 29492

The dashed part of the orbit path shows where the satellite is in the earth's shadow,  

DLR